Header for Extended Forecast Station List Page

Search by: ID | Name | Date | Parm | Value | Avg | % Avg
Sort by: ID | Name | Date | Parm | Value | Avg | % Avg

Enter search or view all records.

Click on id for station plot
#IDNameDateParmValueAvg% Avg
0LYDM8KOOTENAI-LIBBY DAM06-27-2022INFLOW (KAF)33672312146
1LEOI1KOOTENAI-AT LEONIA06-27-2022DISCHARGE (KAF)27862415115
2BFEI1KOOTENAI-AT BONNERS FERRY06-27-2022STAGE (FT)MMM
3FCFM8NF FLATHEAD-NEAR COLUMBIA FALLS06-27-2022DISCHARGE (KAF)741430172
4WGCM8MF FLATHEAD-NEAR WEST GLACIER06-27-2022DISCHARGE (KAF)716380188
5HHWM8SF FLATHEAD-HUNGRY HORSE DAM06-27-2022INFLOW (KAF)579367158
6CFMM8FLATHEAD-AT COLUMBIA FALLS06-27-2022DISCHARGE (KAF)23621584149
7DLGM8CLARK FORK-AT DEER LODGE06-27-2022DISCHARGE (KAF)4337118
8DRMM8CLARK FORK-NR DRUMMOND06-27-2022DISCHARGE (KAF)10510897
9RCCM8ROCK CREEK-NEAR CLINTON06-27-2022DISCHARGE (KAF)9288105
10BONM8BLACKFOOT-NEAR BONNER06-27-2022DISCHARGE (KAF)301212142
11ABOM8CLARK FORK-ABOVE MISSOULA06-27-2022DISCHARGE (KAF)520438119
12BITM8BITTERROOT-NEAR MISSOULA06-27-2022DISCHARGE (KAF)379302126
13BELM8CLARK FORK-BELOW MISSOULA06-27-2022DISCHARGE (KAF)900760118
14STRM8ST. REGIS-NEAR ST. REGIS06-27-2022DISCHARGE (KAF)5939149
15SRGM8CLARK FORK-AT ST REGIS06-27-2022DISCHARGE (KAF)1159989117
16KERM8FLATHEAD-SELI’Š KSANKA QLISPE’ DAM06-27-2022INFLOW (KAF)27131880144
17NOXM8CLARK FORK-NOXON RAPIDS DAM06-27-2022INFLOW (KAF)45183300137
18CABI1CLARK FORK-CABINET GORGE DAM06-27-2022INFLOW (KAF)49793635137
19PRTI1PRIEST-NEAR PRIEST RIVER06-27-2022DISCHARGE (KAF)255172148
20ALFW1PEND OREILLE-ALBENI FALLS DAM06-27-2022INFLOW (KAF)51873658142
21HOPI1PEND OREILLE-PEND OREILLE LAKE NR HOPE06-27-2022LAKE ELEVATION (FT)MMM
22COEI1COEUR D ALENE-COEUR D ALENE LAKE06-27-2022INFLOW (KAF)410253162
23SPOW1SPOKANE-AT SPOKANE06-27-2022DISCHARGE (KAF)472422112
24LLKW1SPOKANE-AT LONGLAKE06-27-2022INFLOW (KAF)667572117
25SATI1ST MARIES-NEAR SANTA06-27-2022DISCHARGE (KAF)3317192
26SJMI1ST JOE-AT ST MARIES06-27-2022STAGE (FT)MMM
27CIBW1COLUMBIA-AT INTL BOUNDARY06-27-2022DISCHARGE (KAF)2889123159125
28LAUW1KETTLE-AT LAURIER06-27-2022DISCHARGE (KAF)395247160
29GCDW1COLUMBIA-GRAND COULEE DAM06-27-2022INFLOW (KAF)3008822064136
30CHJW1COLUMBIA-CHIEF JOSEPH DAM06-27-2022INFLOW (KAF)2893522195130
31TONW1OKANOGAN-NEAR TONASKET06-27-2022DISCHARGE (KAF)822415198
32PATW1METHOW-NEAR PATEROS06-27-2022DISCHARGE (KAF)375199189
33WELW1COLUMBIA-WELLS DAM06-27-2022INFLOW (KAF)3019122987131
34CHDW1CHELAN-LAKE CHELAN DAM06-27-2022INFLOW (KAF)811344236
35RRHW1COLUMBIA-ROCKY REACH DAM06-27-2022INFLOW (KAF)3101823643131
36ARDW1ENTIAT-NEAR ARDENVOIR06-27-2022DISCHARGE (KAF)9155164
37PESW1WENATCHEE-AT PESHASTIN06-27-2022DISCHARGE (KAF)688378182
38WANW1COLUMBIA-WANAPUM DAM06-27-2022INFLOW (KAF)3214523956134
39PRWW1COLUMBIA-PRIEST RAPIDS DAM06-27-2022INFLOW (KAF)3216624068134
40KEDW1YAKIMA-KEECHELUS LAKE06-27-2022INFLOW (KAF)4027147
41KADW1KACHESS-KACHESS DAM06-27-2022INFLOW (KAF)3822168
42EASW1YAKIMA-AT EASTON06-27-2022DISCHARGE (KAF)697592
43CLUW1CLE ELUM-CLE ELUM LAKE06-27-2022INFLOW (KAF)20197207
44TNAW1TEANAWAY-BELOW FORKS06-27-2022DISCHARGE (KAF)179188
45UMTW1YAKIMA-AT UMTANUM06-27-2022DISCHARGE (KAF)658642103
46BUDW1BUMPING-BUMPING LAKE DAM06-27-2022INFLOW (KAF)3726141
47CLFW1NACHES-NEAR CLIFFDEL06-27-2022DISCHARGE (KAF)133102130
48RILW1TIETON-RIMROCK LAKE NEAR RIMROCK06-27-2022INFLOW (KAF)10680133
49NACW1NACHES-NEAR NACHES06-27-2022DISCHARGE (KAF)19522487
50PARW1YAKIMA-NEAR PARKER06-27-2022DISCHARGE (KAF)155135114
51KIOW1YAKIMA-AT KIONA06-27-2022DISCHARGE (KAF)459389118
52IPDI1HENRYS FORK-ISLAND PARK DAM06-27-2022INFLOW (KAF)11813488
53CHEI1FALL RIVER-NEAR CHESTER06-27-2022DISCHARGE (KAF)6310162
54ANTI1HENRYS FORK-AT ST. ANTHONY06-27-2022DISCHARGE (KAF)25630385
55TEAI1TETON-NEAR ST. ANTHONY06-27-2022DISCHARGE (KAF)186182102
56REXI1HENRYS FORK-AT REXBURG06-27-2022DISCHARGE (KAF)29430298
57JLKW4SNAKE-JACKSON LAKE AT DAM06-27-2022INFLOW (KAF)217206106
58JKSW4SNAKE-NEAR JACKSON06-27-2022DISCHARGE (KAF)94398895
59ALPW4SNAKE-NEAR ALPINE06-27-2022DISCHARGE (KAF)1110115996
60PLDI1SF SNAKE-PALISADES DAM06-27-2022INFLOW (KAF)1425149795
61HEII1SNAKE-NEAR HEISE06-27-2022DISCHARGE (KAF)1955218290
62RIDI1WILLOW CREEK-RIRIE DAM06-27-2022INFLOW (KAF)2638
63SIFI1SNAKE-AB EAGLE ROCK NR IDAHO FALLS06-27-2022DISCHARGE (KAF)1186133589
64SHYI1SNAKE-NEAR SHELLEY06-27-2022DISCHARGE (KAF)1027122384
65SNAI1SNAKE-AT BLACKFOOT06-27-2022DISCHARGE (KAF)53267279
66BFTI1SNAKE-NEAR BLACKFOOT06-27-2022DISCHARGE (KAF)52064481
67PIHI1PORTNEUF-AT POCATELLO06-27-2022DISCHARGE (KAF)131869
68AFRI1SNAKE-AMERICAN FALLS RESERVOIR06-27-2022INFLOW (KAF)1074118291
69MILI1SNAKE-AT MILNER06-27-2022DISCHARGE (KAF)0380
70HOTI1BRUNEAU-NEAR HOT SPRINGS06-27-2022DISCHARGE (KAF)242597
71SWAI1SNAKE-BELOW SWAN FALLS06-27-2022DISCHARGE (KAF)1564164895
72HWRI1BIG LOST-AT HOWELL RANCH NEAR CHILLY06-27-2022DISCHARGE (KAF)7452141
73MACI1BIG LOST-MACKAY RESERVOIR NEAR MACKAY06-27-2022INFLOW (KAF)8558146
74HALI1BIG WOOD-AT HAILEY06-27-2022DISCHARGE (KAF)7464116
75MAGI1BIG WOOD-MAGIC DAM06-27-2022INFLOW (KAF)3232101
76LWRI1LITTLE WOOD-LITTLE WOOD DAM06-27-2022INFLOW (KAF)131493
77OWYO3OWYHEE-OWYHEE DAM06-27-2022INFLOW (KAF)486278
78ARAI1SF BOISE-ANDERSON RANCH DAM06-27-2022INFLOW (KAF)758589
79LUCI1BOISE-LUCKY PEAK DAM06-27-2022INFLOW (KAF)570543105
80BIGI1BOISE-AT GLENWOOD BRIDGE06-27-2022DISCHARGE (KAF)195190103
81PARI1BOISE-NEAR PARMA06-27-2022DISCHARGE (KAF)220193114
82WRMO3MALHEUR-WARM SPRINGS DAM06-27-2022INFLOW (KAF)85163
83BERO3MALHEUR-AGENCY VALLEY DAM06-27-2022INFLOW (KAF)71261
84BULO3BULLY CREEK-BULLY CREEK DAM06-27-2022INFLOW (KAF)MMM
85CSDI1NF PAYETTE-CASCADE DAM06-27-2022INFLOW (KAF)7666114
86DEDI1DEADWOOD-NEAR LOWMAN06-27-2022INFLOW (KAF)232692
87EMMI1PAYETTE-NEAR EMMETT06-27-2022DISCHARGE (KAF)448352127
88WSRI1WEISER-NEAR WEISER06-27-2022DISCHARGE (KAF)5552107
89WEII1SNAKE-AT WEISER06-27-2022DISCHARGE (KAF)25102452102
90BRNI1SNAKE-BROWNLEE DAM06-27-2022INFLOW (KAF)26342559103
91WHBI1SALMON-AT WHITEBIRD06-27-2022DISCHARGE (KAF)18451510122
92TRYO3GRANDE RONDE-TROY06-27-2022DISCHARGE (KAF)399245163
93ANAW1SNAKE-NEAR ANATONE06-27-2022DISCHARGE (KAF)52234824108
94ORFI1CLEARWATER-AT OROFINO06-27-2022DISCHARGE (KAF)1008692146
95DWRI1NF CLEARWATER-DWORSHAK DAM06-27-2022INFLOW (KAF)592390152
96SPDI1CLEARWATER-AT SPALDING06-27-2022DISCHARGE (KAF)29462289129
97LGDW1SNAKE-LOWER GRANITE DAM06-27-2022INFLOW (KAF)81697293112
98LGSW1SNAKE-LITTLE GOOSE DAM06-27-2022INFLOW (KAF)81457284112
99LMNW1SNAKE-LOWER MONUMENTAL DAM06-27-2022INFLOW (KAF)81847279112
100IHDW1SNAKE-ICE HARBOR DAM06-27-2022INFLOW (KAF)81907292112
101TCHW1WALLA WALLA-NEAR TOUCHET06-27-2022DISCHARGE (KAF)469521
102MCDW1COLUMBIA-MCNARY DAM06-27-2022INFLOW (KAF)4117332130128
103GIBO3UMATILLA-NEAR GIBBON06-27-2022DISCHARGE (KAF)1312108
104PDTO3UMATILLA-AT PENDLETON06-27-2022DISCHARGE (KAF)3913287
105MYKO3MCKAY CREEK-NEAR PILOT ROCK06-27-2022DISCHARGE (KAF)811115
106UMAO3UMATILLA-NEAR UMATILLA06-27-2022DISCHARGE (KAF)182769
107MONO3NF JOHN DAY-AT MONUMENT06-27-2022DISCHARGE (KAF)9639244
108SERO3JOHN DAY-AT SERVICE CK06-27-2022DISCHARGE (KAF)10461172
109JDAO3COLUMBIA-JOHN DAY DAM06-27-2022INFLOW (KAF)4171831903131
110MODO3DESCHUTES-AT MOODY NR BIGGS06-27-2022DISCHARGE (KAF)1069108998
111TDAO3COLUMBIA-THE DALLES DAM06-27-2022INFLOW (KAF)4221432357130
112PITW1KLICKITAT-NEAR PITT06-27-2022DISCHARGE (KAF)238201118
113HODO3HOOD-NEAR TUCKER BRIDGE06-27-2022DISCHARGE (KAF)10090112
114UNDW1WHITE SALMON-NEAR UNDERWOOD06-27-2022DISCHARGE (KAF)191163117
115BONO3COLUMBIA-BONNEVILLE DAM06-27-2022INFLOW (KAF)4281133355128